Location: Christianberg
(48.9086°N, 14.0209°E)
Time: 22:12:37
(UTC+00:00)

ADEOS Rocket - Pass Details

Date: 20 June 2021
Orbit: 858 x 1307 km, 98.7° (Epoch: 04 August)

Event Time Altitude Azimuth Distance (km) Brightness Sun altitude
Exits shadow 00:45:29 - 153° (SSE) 4,161 5.9 -14.3°
Reaches altitude 10° 00:48:13 10° 151° (SSE) 3,162 5.3 -14.1°
Maximum altitude 00:55:24 69° 70° (ENE) 1,208 3.6 -13.6°
Drops below altitude 10° 01:01:53 10° 350° (N) 2,873 6.3 -13.1°
Sets 01:04:17 0° 348° (NNW) 3,769 6.9 -12.9°
